Location: *
(57.8420°S, 159.8600°W)
Time: 05:07:54
(UTC+00:00)

CZ-4B R/B - Pass Details

Date: 18 May 2021
Orbit: 809 x 881 km, 99.1° (Epoch: 20 June)

Event Time Altitude Azimuth Distance (km) Brightness Sun altitude
Exits shadow 04:49:27 31° 85° (E) 1,401 3.8 -18.3°
Drops below altitude 10° 04:54:08 10° 24° (NNE) 2,414 5.4 -18.9°
Sets 04:56:43 0° 13° (NNE) 3,341 6.2 -19.2°
